{"data":{"norad_id":68683,"epoch":"2026-09-19T21:18:05.226336Z","epoch_age_seconds":96720,"freshness":"FRESH","line1":"1 68683U 26077X   26262.88756049  .00010287  00000+0  32054-3 0  9992","line2":"2 68683  97.2848 132.8611 0001748  89.7919 270.3524 15.33443813 24921","mean_motion":15.33443813,"eccentricity":0.0001748,"inclination_deg":97.2848,"raan_deg":132.8611,"arg_perigee_deg":89.7919,"mean_anomaly_deg":270.3524,"bstar":0.00032054,"rev_number":2492,"period_min":93.906277347248,"perigee_km":464.35043024545,"apogee_km":466.74298206912,"semimajor_km":6843.6837061573,"source":"CELESTRAK","updated_at":"2026-09-20T09:00:43.954697Z"}}